Litchfield, MN

1:58 PM CST on February 14, 2016 (GMT -0600)
Litchfield Municipal

Weather History for KLJF - May, 2012

Change the Weather History Date:

Thursday, May 17, 2012

  Actual Average Record
Temperature  
Mean Temperature 72 °F -  
Max Temperature 89 °F 75 °F 93 °F (1975)
Min Temperature 55 °F 47 °F 31 °F (1973)
Cooling Degree Days 7    
Growing Degree Days 22 (Base 50)    
Moisture  
Dew Point 42 °F    
Average Humidity 35    
Maximum Humidity 49    
Minimum Humidity 18    
Precipitation  
Precipitation 0.00 in - - ()
Sea Level Pressure  
Sea Level Pressure 29.80 in    
Wind  
Wind Speed 9 mph (SSE)    
Max Wind Speed 18 mph    
Max Gust Speed 31 mph    
Visibility 8 miles    
Events Rain    
Averages and records for this station are not official NWS values.
T = Trace of Precipitation, MM = Missing Value Source: NWS Daily Summary

Daily Weather History Graph

Daily Weather History Graph

Search for Another Location

Airport or City:

Trip Planner

Search our weather history database for the weather conditions in past years. The results will help you decide how hot, cold, wet, or windy it might be!

Date:

Astronomy

May. 17, 2012 Rise Set
Actual Time 5:45 AM CDT 8:43 PM CDT
Civil Twilight 5:11 AM CDT 9:18 PM CDT
Nautical Twilight 4:27 AM CDT 10:02 PM CDT
Astronomical Twilight 3:34 AM CDT 10:55 PM CDT
Moon 3:52 AM CDT (5/17) 5:51 PM CDT (5/17)
Length of Visible Light 16h 07m
Length of Day
14h 57m
Waning Crescent, 9% of the Moon is Illuminated
May 17
Waning Crescent
May 20
New
May 28
First Quarter
Jun 4
Full
Jun 11
Last Quarter

Hourly Weather History & Observations

Time (CDT) Temp. Dew Point Humidity Pressure Visibility Wind Dir Wind Speed Gust Speed Precip Events Conditions
12:13 AM 57.2 °F 35.6 °F 44% 30.00 in 5.0 mi SE 6.9 mph - N/A   Haze
12:33 AM 55.4 °F 35.6 °F 47% 30.00 in 5.0 mi SE 6.9 mph - N/A   Haze
12:52 AM 55.4 °F 35.6 °F 47% 29.99 in 5.0 mi SE 6.9 mph - N/A   Haze
1:13 AM 55.4 °F 35.6 °F 47% 29.98 in 3.0 mi SE 9.2 mph - N/A   Haze
1:33 AM 57.2 °F 35.6 °F 44% 29.97 in 1.8 mi SE 9.2 mph - N/A   Haze
2:13 AM 57.2 °F 35.6 °F 44% 29.95 in 0.2 mi SE 10.4 mph - N/A   Haze
2:33 AM 57.2 °F 35.6 °F 44% 29.95 in 1.0 mi SE 6.9 mph - N/A   Haze
2:53 AM 55.4 °F 35.6 °F 47% 29.95 in 0.8 mi SE 6.9 mph - N/A   Haze
3:13 AM 55.4 °F 35.6 °F 47% 29.95 in 1.0 mi SE 8.1 mph - N/A   Haze
3:32 AM 55.4 °F 35.6 °F 47% 29.94 in 0.5 mi SE 8.1 mph - N/A   Haze
3:53 AM 57.2 °F 35.6 °F 44% 29.94 in 2.0 mi SSE 6.9 mph - N/A   Haze
4:12 AM 57.2 °F 35.6 °F 44% 29.94 in 7.0 mi SE 6.9 mph - N/A Rain Light Rain
4:33 AM 57.2 °F 35.6 °F 44% 29.92 in 10.0 mi SSE 9.2 mph - N/A   Light Drizzle
4:53 AM 57.2 °F 37.4 °F 48% 29.93 in 10.0 mi SE 8.1 mph - N/A   Mostly Cloudy
5:13 AM 59.0 °F 35.6 °F 42% 29.91 in 10.0 mi SE 10.4 mph 16.1 mph N/A   Light Drizzle
5:33 AM 60.8 °F 35.6 °F 39% 29.91 in 10.0 mi SSE 8.1 mph - N/A   Clear
5:53 AM 60.8 °F 35.6 °F 39% 29.90 in 10.0 mi SSE 10.4 mph 16.1 mph N/A   Clear
6:12 AM 60.8 °F 37.4 °F 42% 29.89 in 10.0 mi SSE 11.5 mph - N/A   Clear
6:33 AM 60.8 °F 37.4 °F 42% 29.85 in 10.0 mi SE 13.8 mph 20.7 mph N/A   Clear
6:53 AM 60.8 °F 39.2 °F 45% 29.86 in 10.0 mi SE 10.4 mph 16.1 mph N/A   Clear
7:12 AM 62.6 °F 39.2 °F 42% 29.85 in 10.0 mi SE 9.2 mph 18.4 mph N/A   Clear
7:33 AM 64.4 °F 39.2 °F 40% 29.87 in 10.0 mi South 6.9 mph 18.4 mph N/A   Clear
7:53 AM 64.4 °F 39.2 °F 40% 29.85 in 10.0 mi SSE 11.5 mph 21.9 mph N/A   Clear
8:13 AM 64.4 °F 41.0 °F 42% 29.83 in 10.0 mi SSE 13.8 mph 21.9 mph N/A   Clear
8:33 AM 64.4 °F 42.8 °F 45% 29.82 in 10.0 mi SSE 16.1 mph 25.3 mph N/A   Clear
8:52 AM 64.4 °F 44.6 °F 49% 29.83 in 10.0 mi SSE 10.4 mph 20.7 mph N/A   Clear
9:13 AM 66.2 °F 44.6 °F 46% 29.82 in 10.0 mi SSE 12.7 mph 28.8 mph N/A   Clear
9:33 AM 66.2 °F 44.6 °F 46% 29.82 in 10.0 mi SSE 15.0 mph 24.2 mph N/A   Clear
9:52 AM 68.0 °F 44.6 °F 43% 29.81 in 10.0 mi SSE 12.7 mph 28.8 mph N/A   Clear
10:13 AM 66.2 °F 44.6 °F 46% 29.80 in 10.0 mi SSE 18.4 mph 25.3 mph N/A   Clear
10:33 AM 68.0 °F 44.6 °F 43% 29.79 in 10.0 mi SSE 15.0 mph 29.9 mph N/A   Clear
10:52 AM 69.8 °F 44.6 °F 40% 29.78 in 7.0 mi SSE 11.5 mph 25.3 mph N/A   Clear
11:13 AM 71.6 °F 44.6 °F 38% 29.78 in 7.0 mi SSE 11.5 mph 23.0 mph N/A   Clear
11:33 AM 71.6 °F 44.6 °F 38% 29.78 in 5.0 mi SSE 11.5 mph 19.6 mph N/A   Haze
11:52 AM 73.4 °F 42.8 °F 33% 29.77 in 5.0 mi SSE 15.0 mph 24.2 mph N/A   Haze
12:13 PM 73.4 °F 44.6 °F 36% 29.77 in 7.0 mi SSE 11.5 mph 21.9 mph N/A   Clear
12:33 PM 73.4 °F 44.6 °F 36% 29.78 in 7.0 mi SSE 10.4 mph 20.7 mph N/A   Clear
12:52 PM 75.2 °F 44.6 °F 34% 29.78 in 5.0 mi SSE 12.7 mph 23.0 mph N/A   Haze
1:13 PM 78.8 °F 44.6 °F 30% 29.77 in 5.0 mi SSE 12.7 mph 24.2 mph N/A   Haze
1:33 PM 77.0 °F 44.6 °F 32% 29.76 in 5.0 mi SSE 12.7 mph 27.6 mph N/A   Haze
1:52 PM 80.6 °F 44.6 °F 28% 29.74 in 7.0 mi South 11.5 mph 23.0 mph N/A   Clear
2:13 PM 82.4 °F 44.6 °F 26% 29.72 in 5.0 mi South 10.4 mph 21.9 mph N/A   Haze
2:33 PM 84.2 °F 44.6 °F 25% 29.72 in 5.0 mi South 12.7 mph 31.1 mph N/A   Haze
2:52 PM 84.2 °F 44.6 °F 25% 29.71 in 5.0 mi South 11.5 mph 25.3 mph N/A   Haze
3:13 PM 84.2 °F 44.6 °F 25% 29.71 in 7.0 mi SSE 11.5 mph 27.6 mph N/A   Clear
3:33 PM 84.2 °F 46.4 °F 27% 29.70 in 7.0 mi SSE 12.7 mph 21.9 mph N/A   Clear
3:52 PM 84.2 °F 46.4 °F 27% 29.70 in 7.0 mi SSE 10.4 mph 24.2 mph N/A   Clear
4:13 PM 86.0 °F 46.4 °F 25% 29.69 in 7.0 mi SSE 10.4 mph 17.3 mph N/A   Clear
4:33 PM 87.8 °F 42.8 °F 21% 29.68 in 10.0 mi South 12.7 mph 31.1 mph N/A   Clear
4:52 PM 89.6 °F 42.8 °F 20% 29.68 in 10.0 mi South 9.2 mph 26.5 mph N/A   Clear
5:13 PM 89.6 °F 41.0 °F 18% 29.68 in 10.0 mi South 9.2 mph - N/A   Clear
5:33 PM 89.6 °F 41.0 °F 18% 29.67 in 10.0 mi South 9.2 mph 19.6 mph N/A   Clear
5:53 PM 89.6 °F 42.8 °F 20% 29.67 in 10.0 mi South 6.9 mph 20.7 mph N/A   Clear
6:32 PM 87.8 °F 41.0 °F 19% 29.66 in 10.0 mi South 8.1 mph 16.1 mph N/A   Clear
6:53 PM 87.8 °F 41.0 °F 19% 29.67 in 10.0 mi South 6.9 mph 24.2 mph N/A   Clear
7:13 PM 87.8 °F 41.0 °F 19% 29.67 in 10.0 mi South 8.1 mph 18.4 mph N/A   Clear
7:33 PM 87.8 °F 41.0 °F 19% 29.67 in 10.0 mi South 4.6 mph - N/A   Clear
7:53 PM 84.2 °F 41.0 °F 22% 29.67 in 10.0 mi South 6.9 mph - N/A   Clear
8:13 PM 84.2 °F 39.2 °F 20% 29.68 in 10.0 mi South 6.9 mph - N/A   Clear
8:33 PM 82.4 °F 39.2 °F 21% 29.68 in 10.0 mi South 4.6 mph - N/A   Clear
8:53 PM 82.4 °F 41.0 °F 23% 29.69 in 10.0 mi South 4.6 mph - N/A   Clear
9:12 PM 80.6 °F 42.8 °F 26% 29.70 in 10.0 mi South 8.1 mph - N/A   Clear
9:33 PM 80.6 °F 44.6 °F 28% 29.70 in 10.0 mi SSE 8.1 mph - N/A   Clear
9:53 PM 78.8 °F 46.4 °F 32% 29.71 in 10.0 mi SSE 6.9 mph - N/A   Clear
10:12 PM 77.0 °F 46.4 °F 34% 29.72 in 10.0 mi SSE 9.2 mph - N/A   Clear
10:33 PM 77.0 °F 46.4 °F 34% 29.72 in 10.0 mi SSE 8.1 mph 18.4 mph N/A   Clear
10:53 PM 75.2 °F 48.2 °F 38% 29.73 in 10.0 mi SSE 8.1 mph 17.3 mph N/A   Clear
11:13 PM 75.2 °F 48.2 °F 38% 29.73 in 10.0 mi South 8.1 mph 17.3 mph N/A   Clear
11:33 PM 73.4 °F 48.2 °F 41% 29.73 in 10.0 mi SSE 6.9 mph - N/A   Clear
11:53 PM 73.4 °F 48.2 °F 41% 29.74 in 10.0 mi SSE 11.5 mph 23.0 mph N/A   Clear